Погода в Качканаре

Россия / Свердловская область     58°42′18″N   59°29′02″E
темп.,
°C
ветер,
м/с
пор.,
м/с
влажн.,
%
обл.,
%
осадки,
мм/ч
давл.,
гПа
погр.,
м
24 июня, чт
чт2423:00+10з00725 0.0 102010
02:00+9юз11775 0.0 102010
05:00+9зюз22745 0.0 101923
08:00+18з2452100 0.0 1018398
11:00+22зсз244135 0.0 10161207
14:00+26зсз363962 0.0 10152114
17:00+26сз464844 0.0 10131114
20:00+24зсз0164100 0.0 101212
25 июня, пт
пт2523:00+17св1196100 10.0 101226
02:00+15зсз119573 0.1 101212
05:00+14ссз119739 0.1 101220
08:00+18св1292100 0.0 1012346
11:00+22всв226749 0.1 1012933
14:00+25всв225257 0.0 10121530
17:00+26вюв0152100 0.0 10111367
20:00+24юв12695 0.0 1009100
26 июня, сб
сб2623:00+17юз1196100 0.8 101011
02:00+17юз2298100 2.4 100952
05:00+16зсз2197100 2.6 100826
08:00+20ююз1184100 0.0 1007205
11:00+21в118434 0.6 1008189
14:00+25сз346421 1.0 10071216
17:00+23ссз36753 2.7 10081026
20:00+20ссв26906 1.9 1008207
27 июня, вс
вс2723:00+16с22975 2.0 101034
02:00+15св0099100 0.0 101015
05:00+15св019961 0.0 101137
08:00+15в129699 0.0 1011239
11:00+17св128967 0.1 1011415
14:00+22ссв235967 0.3 10111208
17:00+20ссв247644 1.6 1012462
20:00+18св148776 0.9 1014257
28 июня, пн
пн2823:00+14ссз119513 0.9 101511
02:00+13зсз11950 0.0 101610
05:00+12зсз11942 0.0 101710
08:00+18ссв11780 0.0 1017283
11:00+23св12482 0.0 10171657
14:00+25ссв23356 0.0 10172436
17:00+25в233427 0.0 10162274
20:00+22ююв2255100 0.0 101625